Powrót do katalogu

STARLINK-36933

AktywnyŁącznośćVLEO
NORAD 69196·PAYLOAD·🇺🇸 United States

Wystrzelony May 25, 2026 z Cape Canaveral Space Force Station

Loading…

Następne Przeloty (najbliższe 24 godziny)

TLE

ŚwieżeSource: CelesTrak SupGP

Epoka: Sep 14, 2026, 21:06 UTC

1 69196C 26114Q   26257.87965278 -.00011223  00000+0 -33185-3 0  2579
2 69196  53.1567 140.0289 0001073  88.4459 240.4064 15.34370975    18

Śledź STARLINK-36933 w czasie rzeczywistym z AllMySat

Download on the App Store